Location: *
(43.7000°S, 168.7000°W)
Time: 13:20:11
(UTC+00:00)

CZ-4B R/B - Pass Details

Date: 07 July 2020
Orbit: 808 x 882 km, 99.1° (Epoch: 03 August)

Event Time Altitude Azimuth Distance (km) Brightness Sun altitude
Rises 16:07:24 0° 21° (NNE) 3,382 6.7 -28.2°
Reaches altitude 10° 16:09:43 10° 22° (NNE) 2,466 5.9 -27.7°
Maximum altitude 16:15:12 77° 107° (ESE) 892 3.3 -26.8°
Enters shadow 16:18:02 31° 187° (S) 1,498 4.3 -26.2°
